EW6196 Weather Reports


time (UTC)temp
C
wind
direction
speed
KPH
gust
KPH
rain 1hr
cm
rain 24hr
cm
rain mn
cm
humidity
%
barometer
mb
20260503005339 17 5 0.0 3.2 0.00 0.00 0.00 38 1009.1
20260503002338 17 5 0.0 12.9 0.00 0.00 0.00 37 1009.4
20260502235338 18 5 0.0 12.9 0.00 0.00 0.00 32 1009.4
20260502232336 18 5 0.0 6.4 0.00 0.00 0.00 31 1009.4
20260502225336 18 5 0.0 16.1 0.00 0.00 0.00 31 1009.7
20260502222336 18 5 0.0 19.3 0.00 0.00 0.00 30 1010.2
20260502215334 19 5 1.6 17.7 0.00 0.00 0.00 30 1010.4
20260502212335 20 5 1.6 14.5 0.00 0.00 0.00 29 1010.9
20260502205335 20 5 0.0 12.9 0.00 0.00 0.00 29 1011.5
20260502202332 18 5 1.6 17.7 0.00 0.00 0.00 30 1012.1
20260502195332 17 5 3.2 19.3 0.00 0.00 0.00 30 1012.8
20260502192332 17 5 0.0 12.9 0.00 0.00 0.00 29 1013.3
20260502185330 17 5 0.0 16.1 0.00 0.00 0.00 32 1013.8
20260502182330 16 5 0.0 17.7 0.00 0.00 0.00 32 1014.5
20260502162327 14 5 0.0 9.7 0.00 0.00 0.00 34 1016.3
20260502152328 12 5 1.6 19.3 0.00 0.00 0.00 37 1016.7
20260502150725 12 5 0.0 6.4 0.00 0.00 0.00 39 1016.9
20260502122321 3 5 0.0 0.0 0.00 0.00 0.00 77 1017.3
20260502115321 2 5 0.0 0.0 0.00 0.00 0.00 76 1017.3
20260502112322 2 5 0.0 0.0 0.00 0.00 0.00 76 1017.2
20260502105319 2 5 0.0 0.0 0.00 0.00 0.00 78 1017.1
20260502102318 2 5 0.0 0.0 0.00 0.00 0.00 74 1017.0
20260502065311 6 5 0.0 0.0 0.00 0.00 0.00 61 1017.2
20260502062311 6 5 0.0 3.2 0.00 0.00 0.00 55 1017.3
20260502055308 6 5 0.0 1.6 0.00 0.00 0.00 53 1017.4
20260502052309 6 5 0.0 0.0 0.00 0.00 0.00 51 1017.4
20260502045310 7 5 0.0 0.0 0.00 0.00 0.00 50 1017.2
20260502042308 7 5 0.0 0.0 0.00 0.00 0.00 48 1017.2
20260502035306 7 5 0.0 0.0 0.00 0.00 0.00 46 1017.2
20260502032305 8 5 0.0 0.0 0.00 0.00 0.00 44 1017.4
20260502025306 8 5 0.0 0.0 0.00 0.00 0.00 43 1017.3
20260502023634 8 5 0.0 0.0 0.00 0.00 0.00 44 1017.2
20260502020642 9 5 0.0 0.0 0.00 0.00 0.00 39 1017.0
20260502012258 10 5 0.0 0.0 0.00 0.00 0.00 33 1016.7